Regional Weather Roundup
Issued by NWS

Home | Current Version | Previous Version | Text Only | Print | Product List | Glossary On
Versions: 1 2 3 4 5 6 7 8 9 10 11 12 13 14 15 16 17 18 19 20 21 22 23 24 25 26 27 28 29 30 31 32 33 34 35 36 37 38 39 40 41 42 43 44 45 46 47 48 49 50
647
ASUS43 KMPX 200610
RWRMN
WEATHER ROUNDUP FOR MINNESOTA
NATIONAL WEATHER SERVICE TWIN CITIES/CHANHASSEN MN
1200 AM CST MON NOV 20 2017


NOTE: "FAIR" INDICATES FEW OR NO CLOUDS BELOW 12,000 FEET WITH NO
SIGNIFICANT WEATHER AND/OR OBSTRUCTIONS TO VISIBILITY. N/A MEANS
CURRENT SKY AND/OR WEATHER CONDITIONS ARE NOT AVAILABLE.

MNZ060>063-068>070-200700-
   Twin Cities Metro

CITY           SKY/WX    TMP DP  RH WIND       PRES   REMARKS
TWIN CITIES    MOCLDY    37  27  67 SW7       29.79S
6HR MIN TEMP:  36; 6HR MAX TEMP:  39;

ST PAUL        CLEAR     28  25  88 SE5       29.80F WCI  23
CRYSTAL        CLEAR     36  24  62 S7        29.77F
BLAINE         CLEAR     36  27  69 S7        29.77S
LAKEVILLE      CLEAR     34  27  75 CALM      29.79S
EDEN PRAIRIE   CLEAR     33  25  72 SW6       29.77F WCI  28
6HR MIN TEMP:  33; 6HR MAX TEMP:  37;

SOUTH ST PAUL  CLEAR     34  26  73 SE5       29.79S WCI  30
LAKE ELMO      FAIR      30  27  86 S6        29.80S WCI  24
$$
MNZ001>005-007-008-013>017-022>024-027-028-200700-
   Northwest Minnesota

CITY           SKY/WX    TMP DP  RH WIND       PRES   REMARKS
BEMIDJI        CLOUDY    15  12  90 CALM      29.68F
HALLOCK        CLOUDY    19  18  93 SE7       29.65F WCI  10
ROSEAU         CLOUDY    19  14  79 SE3       29.68F
WARROAD        CLOUDY    18  14  86 SE5       29.69S WCI  11
THIEF RVR FALL CLOUDY    19  18  95 SE6       29.68F WCI  11
CROOKSTON      CLOUDY    23  21  93 SE7       29.68F WCI  15
FOSSTON        CLOUDY    18  16  93 S5        29.69S WCI  11
DETROIT LAKES  CLOUDY    27  23  86 CALM      29.71S
MOORHEAD       CLOUDY    25  19  80 S5        29.70F WCI  19
PARK RAPIDS    CLOUDY    23  19  85 CALM      29.68F
MAHNOMEN       FAIR      25  21  84 S5        29.69R WCI  20
$$
MNZ006-009>011-018-025>026-200700-
   North Central Minnesota

CITY           SKY/WX    TMP DP  RH WIND       PRES   REMARKS
BAUDETTE       CLOUDY    15  11  83 SE6       29.69F WCI   6
FLAG ISLAND    PTCLDY    19  14  79 SE6       29.68F WCI  11
INTL FALLS     CLOUDY    13   9  84 SE3       29.71F
6HR MIN TEMP:  12; 6HR MAX TEMP:  16;

WASKISH        CLOUDY    14  12  92 E3        29.69F
BIG FORK       CLOUDY     9   7  92 CALM      29.71S
LONGVILLE      CLEAR     16  16 100 CALM      29.71S
GRAND RAPIDS   CLOUDY    14  12  92 CALM      29.74S
CRANE LAKE     CLOUDY     9   9 100 CALM      29.76S
ORR            CLOUDY    12   9  85 SE3       29.70S
COOK           CLOUDY     9   7  92 CALM      29.73S
WALKER         FAIR      22  20  90 CALM      29.69S
$$
MNZ012-019>021-037-200700-
   Northeast Minnesota

CITY           SKY/WX    TMP DP  RH WIND       PRES   REMARKS
DULUTH         CLOUDY    20  17  88 E5        29.74F WCI  13
6HR MIN TEMP:  18; 6HR MAX TEMP:  23;

ELY            CLOUDY    12  10  92 CALM      29.73F
HIBBING        CLEAR      8   6  92 CALM      29.73F
EVELETH        CLOUDY     7   3  85 CALM      29.75F
DULUTH HARBOR  CLOUDY    25  21  86 CALM      29.78F
TWO HARBORS    CLEAR     16  10  79 CALM      29.75S
SILVER BAY     CLOUDY    16  14  93 CALM      29.75F
GRAND MARAIS     N/A     23  15  71 CALM      29.81S
G MARAIS ARPRT CLOUDY    10   5  79 CALM      29.73F
$$
MNZ029>031-032-039>041-046>048-054>057-064-200700-
   West Central Minnesota

CITY           SKY/WX    TMP DP  RH WIND       PRES   REMARKS
FERGUS FALLS   CLOUDY    27  21  80 S5        29.74S WCI  21
WHEATON        CLOUDY    21  19  93 S6        29.74S WCI  14
MORRIS         CLEAR     28  23  80 SW3       29.73S
ALEXANDRIA     CLEAR     30  24  78 SW9       29.72F WCI  22
ELBOW LAKE     FAIR      26  23  87 S6        29.72F WCI  19
WADENA         CLOUDY    21  19  93 CALM      29.71R
GLENWOOD       CLEAR     30  25  80 SW6       29.73F WCI  24
APPLETON       CLEAR     27  21  80 SE3       29.74S
BENSON         CLEAR     25  19  80 CALM      29.75F
ORTONVILLE     CLEAR     36  25  64 MISG      29.73S
MADISON        CLEAR     34  25  69 S5        29.74F WCI  30
WILLMAR        FAIR      28  25  86 CALM      29.76F
$$
MNZ033>034-036-042>043-049>051-058-059-200700-
   Central Minnesota

CITY           SKY/WX    TMP DP  RH WIND       PRES   REMARKS
ST CLOUD       CLEAR     21  20  96 S3        29.75S
6HR MIN TEMP:  21; 6HR MAX TEMP:  31;

SAUK CENTRE    FAIR      31  25  76 S3        29.72F
PAYNESVILLE    CLEAR     28  25  91 CALM      29.75F
AITKIN         CLEAR     16  14  93 CALM      29.72S
PINE RIVER     CLOUDY    18  16  93 CALM      29.75S
BRAINERD       CLEAR     21  18  88 CALM      29.72F
STAPLES        CLOUDY    25  21  86 CALM      29.71S
LONG PRAIRIE   FAIR      27  23  86 S5        29.73F WCI  21
LITTLE FALLS   CLEAR     21  18  86 CALM      29.74F
LITCHFIELD     CLEAR     32  27  80 CALM      29.76F
BUFFALO        CLEAR     31  24  75 CALM      29.78S
MAPLE LAKE     CLEAR     33  27  79 CALM      29.77S
HUTCHINSON     CLOUDY    33  27  79 S3        29.77F
$$
MNZ037-044-045-052-053-200700-
   East Central Minnesota

CITY           SKY/WX    TMP DP  RH WIND       PRES   REMARKS
PRINCETON      CLEAR     23  21  93 CALM      29.76R
MORA           CLOUDY    19  18  93 CALM      29.76F
CAMBRIDGE      CLEAR     27  19  74 CALM      29.77S
RUSH CITY      CLEAR     28  23  81 S3        29.76F
MOOSE LAKE     CLOUDY    19  18  93 NE3       29.73F
HINCKLEY       FAIR      19  19 100 CALM      29.76S
CLOQUET        CLOUDY    19  14  79 CALM      29.74S
MCGREGOR       CLOUDY    19  18  93 CALM      29.74S
$$
MNZ071>073-080-081-089-090-097-098-200700-
   Southwest Minnesota

CITY           SKY/WX    TMP DP  RH WIND       PRES   REMARKS
MONTEVIDEO     CLEAR     32  25  74 SW6       29.74F WCI  26
GRANITE FALLS  CLOUDY    31  25  77 S10       29.77S WCI  22
CANBY          CLEAR     41  25  54 W3        29.74S
MARSHALL       CLOUDY    37  24  59 CALM      29.75F
REDWOOD FALLS  CLOUDY    33  23  66 SW10      29.76F WCI  25
OLIVIA         CLOUDY    30  23  74 S3        29.75F
PIPESTONE      CLOUDY    34  25  69 S6        29.75F WCI  29
WINDOM         CLOUDY    36  19  51 S5        29.78F
WORTHINGTON    CLOUDY    36  25  64 S12       29.78F
JACKSON        CLOUDY    36  27  69 SW9       29.79S
SLAYTON        CLOUDY    34  25  69 SW12      29.77F WCI  25
$$
MNZ065>067-074>077-082>085-091>093-200700-
   South Central Minnesota

CITY           SKY/WX    TMP DP  RH WIND       PRES   REMARKS
MANKATO        CLOUDY    32  26  78 S7        29.80F WCI  26
NEW ULM        CLOUDY    32  25  74 CALM      29.78F
ST JAMES       CLOUDY    34  27  75 S12       29.80S WCI  25
FAIRMONT       CLOUDY    33  27  78 S10       29.81F WCI  25
GLENCOE        CLOUDY    33  27  80 S3        29.77F
FARIBAULT      CLOUDY    34  27  75 S5        29.81F WCI  30
OWATONNA       CLOUDY    36  28  75 S13       29.81F
WASECA         CLOUDY    32  28  86 S7        29.82F WCI  26
ALBERT LEA     PTCLDY    37  27  65 S7        29.82F
$$
MNZ078>079-086>088-094>096-200700-
   Southeast Minnesota

CITY           SKY/WX    TMP DP  RH WIND       PRES   REMARKS
ROCHESTER      CLOUDY    32  27  81 S14       29.83F WCI  22
6HR MIN TEMP:  32; 6HR MAX TEMP:  35;

RED WING       CLEAR     34  25  69 N3        29.80F
STANTON        CLOUDY    34  28  78 S5        29.79F WCI  30
DODGE CENTER   CLOUDY    34  27  75 S10       29.82F WCI  26
WINONA         CLOUDY    36  28  75 SW6       29.85F
AUSTIN         CLOUDY    30  27  86 S8        29.83F WCI  23
PRESTON        CLOUDY    33  25  74 SW13      29.85F WCI  23
$$
ABBREVIATIONS USED IN REMARKS
   TC - TEMPERATURES IN CELSIUS
  WCI - WIND CHILL INDEX
   HX - HEAT INDEX
  VSB - VISIBILITY
$$




USA.gov is the U.S. government's official web portal to all federal, state and local government web resources and services.